Weather History for Marianna, FL

Change the Weather History Date:

Tuesday, January 15, 2013

  Actual Average Record
Temperature  
Mean Temperature 72 °F 50 °F  
Max Temperature 79 °F 61 °F 79 °F (2013)
Min Temperature 64 °F 39 °F 24 °F (2011)
Degree Days  
Heating Degree Days 0    
Month to date heating degree days 98  
Since 1 July heating degree days 589  
Cooling Degree Days 7    
Month to date cooling degree days 38  
Year to date cooling degree days 38  
Growing Degree Days 21 (Base 50)    
Moisture  
Dew Point 64 °F    
Average Humidity 79    
Maximum Humidity 100    
Minimum Humidity 58    
Precipitation  
Precipitation 0.00 in 0.13 in 1.02 in (1998)
Month to date precipitation 0.43 2.29  
Year to date precipitation 0.43 2.29  
Sea Level Pressure  
Sea Level Pressure 30.04 in    
Wind  
Wind Speed 9 mph (South)    
Max Wind Speed 17 mph    
Max Gust Speed 22 mph    
Visibility 9 miles    
Events      
T = Trace of Precipitation, MM = Missing Value Source: NWS Daily Summary

Daily Weather History Graph

Daily Weather History Graph

Search for Another Location

Airport:

Trip Planner

Search our weather history database for the weather conditions in past years. The results will help you decide how hot, cold, wet, or windy it might be!

Date:

Astronomy

Jan. 15, 2013 Rise Set
Actual Time 6:39 AM CST 5:01 PM CST
Civil Twilight 6:12 AM CST 5:27 PM CST
Nautical Twilight 5:43 AM CST 5:57 PM CST
Astronomical Twilight 5:14 AM CST 6:26 PM CST
Moon 9:04 AM CST (1/15) 9:27 PM CST (1/15)
Length of Visible Light 11h 14m
Length of Day
10h 22m
Waxing Crescent, 19% of the Moon is Illuminated
Jan 15
Waxing Crescent
Jan 18
First Quarter
Jan 26
Full
Feb 3
Last Quarter
Feb 10
New

Hourly Weather History & Observations

Time (CST) Temp. Dew Point Humidity Pressure Visibility Wind Dir Wind Speed Gust Speed Precip Events Conditions
12:53 AM 64.9 °F 63.0 °F 93% 30.09 in 7.0 mi South 8.1 mph - N/A   Overcast
1:53 AM 64.9 °F 64.0 °F 97% 30.08 in 6.0 mi South 8.1 mph - N/A   Overcast
2:53 AM 64.9 °F 64.0 °F 97% 30.07 in 8.0 mi South 8.1 mph - N/A   Overcast
3:33 AM 66.2 °F 64.4 °F 94% 30.07 in 10.0 mi South 6.9 mph - N/A   Overcast
3:53 AM 66.0 °F 64.0 °F 93% 30.06 in 10.0 mi South 9.2 mph - N/A   Overcast
4:53 AM 66.0 °F 64.0 °F 93% 30.05 in 9.0 mi South 5.8 mph - N/A   Overcast
5:53 AM 64.9 °F 64.0 °F 97% 30.06 in 8.0 mi South 5.8 mph - N/A   Mostly Cloudy
6:02 AM 64.4 °F 64.4 °F 100% 30.06 in 8.0 mi South 6.9 mph - N/A   Scattered Clouds
6:11 AM 64.4 °F 64.4 °F 100% 30.06 in 8.0 mi South 5.8 mph - N/A   Mostly Cloudy
6:53 AM 66.0 °F 64.0 °F 93% 30.08 in 7.0 mi South 5.8 mph - N/A   Overcast
7:43 AM 66.2 °F 64.4 °F 94% 30.09 in 9.0 mi South 5.8 mph - N/A   Overcast
7:53 AM 66.9 °F 64.9 °F 93% 30.09 in 10.0 mi South 10.4 mph - N/A   Overcast
8:53 AM 66.9 °F 64.0 °F 90% 30.10 in 10.0 mi SSE 5.8 mph - N/A   Overcast
9:53 AM 69.1 °F 64.9 °F 87% 30.09 in 10.0 mi South 9.2 mph - N/A   Overcast
10:00 AM 69.8 °F 64.4 °F 83% 30.08 in 10.0 mi SSE 8.1 mph - N/A   Overcast
10:40 AM 73.4 °F 64.4 °F 73% 30.06 in 10.0 mi South 8.1 mph - N/A   Overcast
10:53 AM 72.0 °F 64.0 °F 76% 30.06 in 10.0 mi South 9.2 mph - N/A   Overcast
11:53 AM 75.9 °F 64.0 °F 67% 30.03 in 10.0 mi South 10.4 mph - N/A   Overcast
12:18 PM 75.2 °F 64.4 °F 69% 30.02 in 10.0 mi South 12.7 mph - N/A   Overcast
12:53 PM 78.1 °F 62.1 °F 58% 30.01 in 10.0 mi SSW 15.0 mph - N/A   Overcast
1:53 PM 77.0 °F 62.1 °F 60% 30.01 in 10.0 mi SSW 15.0 mph 21.9 mph N/A   Overcast
2:53 PM 75.9 °F 62.1 °F 62% 30.01 in 10.0 mi SSW 15.0 mph - N/A   Overcast
3:53 PM 73.9 °F 63.0 °F 68% 30.02 in 10.0 mi SSW 9.2 mph - N/A   Overcast
4:53 PM 73.0 °F 63.0 °F 71% 30.02 in 10.0 mi South 6.9 mph - N/A   Overcast
5:53 PM 72.0 °F 64.0 °F 76% 30.03 in 10.0 mi South 6.9 mph - N/A   Overcast
6:53 PM 71.1 °F 64.0 °F 78% 30.02 in 10.0 mi SSE 4.6 mph - N/A   Overcast
7:27 PM 69.8 °F 64.4 °F 83% 30.02 in 10.0 mi SSE 5.8 mph - N/A   Mostly Cloudy
7:41 PM 69.8 °F 64.4 °F 83% 30.01 in 10.0 mi South 6.9 mph - N/A   Scattered Clouds
7:53 PM 69.1 °F 64.0 °F 84% 30.01 in 10.0 mi SSE 5.8 mph - N/A   Mostly Cloudy
8:51 PM 68.0 °F 64.4 °F 88% 30.02 in 10.0 mi South 5.8 mph - N/A   Mostly Cloudy
8:53 PM 68.0 °F 64.9 °F 90% 30.02 in 10.0 mi South 5.8 mph - N/A   Mostly Cloudy
9:53 PM 69.1 °F 64.9 °F 87% 30.01 in 10.0 mi South 10.4 mph - N/A   Overcast
10:53 PM 69.1 °F 64.9 °F 87% 30.01 in 10.0 mi South 10.4 mph - N/A   Overcast
11:53 PM 69.1 °F 64.9 °F 87% 30.00 in 10.0 mi South 11.5 mph - N/A   Overcast